WetterOnline ( http://www.wetteronline.de )

Wetter aktuell Hittbergen

Aktuelles Wetter: Lübeck/Blankensee (15m)

6-stündlich | Neueste Meldungen
Ortszeit Temperatur Wetter
Fr, 20.04. 2:00 15.5° C wolkig
Do, 19.04. 20:00 19.7° C leicht bewölkt
Do, 19.04. 14:00 22.9° C fast wolkenlos
Do, 19.04. 8:00 10.4° C fast wolkenlos
Do, 19.04. 2:00 9.1° C bedeckt
Mi, 18.04. 20:00 20.0° C wolkenlos
Mi, 18.04. 14:00 21.5° C wolkenlos
Mi, 18.04. 8:00 10.7° C wolkenlos
Ortszeit Temperatur Wetter
Fr, 20.04. 4:30 11.8° C fast wolkenlos
Fr, 20.04. 4:20 11.8° C fast wolkenlos
Fr, 20.04. 4:10 12.3° C leicht bewölkt
Fr, 20.04. 4:00 12.2° C wolkig
Fr, 20.04. 3:50 12.2° C wolkig
Fr, 20.04. 3:40 12.2° C wolkig
Fr, 20.04. 3:30 10.2° C wolkig
Fr, 20.04. 3:00 14.5° C leicht bewölkt
Fr, 20.04. 2:30 14.7° C leicht bewölkt
Fr, 20.04. 2:00 15.5° C wolkig
Fr, 20.04. 1:30 15.6° C wolkig
Ortszeit Relative Feuchte Sichtweite
Fr, 20.04. 2:00 73% 20 km
Do, 19.04. 20:00 67% 20 km
Do, 19.04. 14:00 43% 14 km
Do, 19.04. 8:00 94% 4.8 km
Do, 19.04. 2:00 100% 2.5 km
Mi, 18.04. 20:00 55% 40 km
Mi, 18.04. 14:00 47% 35 km
Mi, 18.04. 8:00 78% 15 km
Ortszeit Relative Feuchte Sichtweite
Fr, 20.04. 4:30 89% 17 km
Fr, 20.04. 4:20 89% -
Fr, 20.04. 4:10 86% -
Fr, 20.04. 4:00 87% 17 km
Fr, 20.04. 3:50 87% -
Fr, 20.04. 3:40 86% -
Fr, 20.04. 3:30 90% 12 km
Fr, 20.04. 3:00 78% 20 km
Fr, 20.04. 2:30 76% 21 km
Fr, 20.04. 2:00 73% 20 km
Fr, 20.04. 1:30 73% 20 km
Ortszeit Niederschlagsmenge Niederschlagsart
Fr, 20.04. 2:00 0.0 l/m2 in 6 Std. -
Do, 19.04. 20:00 0.0 l/m2 in 12 Std. -
Do, 19.04. 14:00 0.0 l/m2 in 6 Std. -
Do, 19.04. 8:00 0.0 l/m2 in 12 Std. -
Do, 19.04. 2:00 0.0 l/m2 in 6 Std. -
Mi, 18.04. 20:00 0.0 l/m2 in 12 Std. -
Mi, 18.04. 14:00 0.0 l/m2 in 6 Std. -
Mi, 18.04. 8:00 0.0 l/m2 in 12 Std. -
Ortszeit Niederschlagsmenge Niederschlagsart
Fr, 20.04. 4:30 0.0 l/m2 in 1 Std. -
Fr, 20.04. 4:20 keine Meldung -
Fr, 20.04. 4:10 keine Meldung -
Fr, 20.04. 4:00 0.0 l/m2 in 1 Std. -
Fr, 20.04. 3:50 keine Meldung -
Fr, 20.04. 3:40 keine Meldung -
Fr, 20.04. 3:30 0.0 l/m2 in 1 Std. -
Fr, 20.04. 3:00 0.0 l/m2 in 1 Std. -
Fr, 20.04. 2:30 0.0 l/m2 in 1 Std. -
Fr, 20.04. 2:00 0.0 l/m2 in 1 Std. -
Fr, 20.04. 1:30 0.0 l/m2 in 1 Std. -
Ortszeit Stärke Spitze Richtung
km/h Bft. km/h Grad Sektor
Fr, 20.04. 2:00 4 1 18 160° S
Do, 19.04. 20:00 11 2 22 70° O
Do, 19.04. 14:00 11 2 22 130° SO
Do, 19.04. 8:00 4 1 7 60° NO
Do, 19.04. 2:00 2 1 19 100° O
Mi, 18.04. 20:00 7 2 25 300° NW
Mi, 18.04. 14:00 11 2 26 290° W
Mi, 18.04. 8:00 6 1 13 190° S
Ortszeit Stärke Spitze Richtung
km/h Bft. km/h Grad Sektor
Fr, 20.04. 4:30 4 1 7 180° S
Fr, 20.04. 4:20 4 1 - 180° S
Fr, 20.04. 4:10 4 1 - 170° S
Fr, 20.04. 4:00 7 2 11 140° SO
Fr, 20.04. 3:50 7 2 - 140° SO
Fr, 20.04. 3:40 7 2 - 130° SO
Fr, 20.04. 3:30 6 1 9 130° SO
Fr, 20.04. 3:00 4 1 11 150° SO
Fr, 20.04. 2:30 4 1 11 150° SO
Fr, 20.04. 2:00 4 1 14 160° S
Fr, 20.04. 1:30 7 2 14 150° SO
Ortszeit Untergrenze Bedeckung Gattung
total tief tief mittel hoch
Fr, 20.04. 2:00 12000 m 8/8 0/8 - - -
Do, 19.04. 20:00 12000 m 4/8 0/8 - - -
Do, 19.04. 14:00 10500 m 1/8 0/8 - - -
Do, 19.04. 8:00 9000 m 2/8 0/8 - - -
Do, 19.04. 2:00 3600 m 7/8 - - - -
Mi, 18.04. 20:00 - 0/8 0/8 - - -
Mi, 18.04. 14:00 - 0/8 0/8 - - -
Mi, 18.04. 8:00 - 0/8 0/8 - - -
Ortszeit Bedeckungsgrad in Achtel und Wolkenuntergrenze
Fr, 20.04. 4:30 2(12000m)
Fr, 20.04. 4:20 2(12000m)
Fr, 20.04. 4:10 1(10500m) 4(12000m)
Fr, 20.04. 4:00 5(10500m) 8(12000m)
Fr, 20.04. 3:50 5(10500m) 8(12000m)
Fr, 20.04. 3:40 5(10500m) 7(12000m)
Fr, 20.04. 3:30 7(10500m) 7(12000m)
Fr, 20.04. 3:00 6(10500m)
Fr, 20.04. 2:30 3(10500m) 4(12000m)
Fr, 20.04. 2:00 8(12000m) 6(12000m)
Fr, 20.04. 1:30 8(12000m) 8(12000m)
Ortszeit Luftdruck NN (hPa) Tendenz (hPa in 3 Std.)
Fr, 20.04. 2:00 1027 - 1,5
Do, 19.04. 20:00 1029 - 1,0
Do, 19.04. 14:00 1031 - 1,0
Do, 19.04. 8:00 1032 + 0,2
Do, 19.04. 2:00 1033 - 0,2
Mi, 18.04. 20:00 1032 0,0
Mi, 18.04. 14:00 1032 + 0,2
Mi, 18.04. 8:00 1031 + 1,4
Ortszeit Luftdruck NN (hPa) Tendenz (hPa in 3 Std.)
Fr, 20.04. 4:30 1026 - 1,2
Fr, 20.04. 4:20 1026 keine Meldung
Fr, 20.04. 4:10 1026 keine Meldung
Fr, 20.04. 4:00 1026 - 1,2
Fr, 20.04. 3:50 1026 keine Meldung
Fr, 20.04. 3:40 1026 keine Meldung
Fr, 20.04. 3:30 1026 - 1,4
Fr, 20.04. 3:00 1026 - 1,5
Fr, 20.04. 2:30 1027 - 1,6
Fr, 20.04. 2:00 1027 - 1,5
Fr, 20.04. 1:30 1027 - 1,6
Ortszeit Schneehöhe (cm)
Fr, 20.04. 2:00 0
Do, 19.04. 20:00 0
Do, 19.04. 14:00 0
Do, 19.04. 8:00 0
Do, 19.04. 2:00 0
Mi, 18.04. 20:00 0
Mi, 18.04. 14:00 0
Mi, 18.04. 8:00 0
Ortszeit Schneehöhe (cm)
Fr, 20.04. 4:30 0
Fr, 20.04. 4:20 0
Fr, 20.04. 4:10 0
Fr, 20.04. 4:00 0
Fr, 20.04. 3:50 0
Fr, 20.04. 3:40 0
Fr, 20.04. 3:30 0
Fr, 20.04. 3:00 0
Fr, 20.04. 2:30 0
Fr, 20.04. 2:00 0
Fr, 20.04. 1:30 0
Link zu dieser Seite / Seite empfehlen

Das Wetter in ...